www.pogodaiklimat.ru

Погода и климат >> Архив погоды >> Литва >> Vilnius


АРХИВ ПОГОДЫ в Vilnius

Время (UTC), дата Ветер
(напр.,м/с)
 
Видим.   Явления Облачность Т
(С)
Тd
(С)
f
(%)
Тe
(С)
Тes
(С)
Комфортность P
(гПа)
Po
(гПа)
Тmin
(С)
Tmax
(С)
R
(мм)
R24
(мм)
S
(см)
00 13.09 ЮЗ 2-3
{6}
20 км в посл. час дождь 9/0
[Ac As]
+13.7 +12.2 91 +13 +13 тепло 1017.9 999.2
03 13.09 З 2-4
{4}
20 км 9/6 2000 м
[Sc Ac trans]
+13.2 +11.9 92 +12 +12 тепло 1018.5 999.7
06 13.09 З 2-5
{5}
20 км 9/0
[Ac As]
+14.3 +11.9 85 +14 +14 тепло 1019.6 1000.9 +12.8 0.5
09 13.09 З 4-6
{7}
20 км 9/4 1000 м
[Sc Ac As]
+15.9 +9.8 67 +15 +16 тепло 1021.0 1002.4
12 13.09 СЗ 3-5
{7}
20 км 9/5 1000 м
[Sc Ac As]
+16.8 +8.4 58 +17 +18 тепло 1020.9 1002.3
15 13.09 З 2-4
{5}
20 км 9/0
[Ac As]
+16.1 +9.2 64 +16 +17 тепло 1020.0 1001.4
18 13.09 штиль 0-1
{4}
20 км 8/0
[Ac trans]
+13.8 +9.7 76 +13 +13 по сезону 1020.0 1001.2 +17.6
21 13.09 штиль 0
{2}
20 км 10/0
[Ac As]
+11.6 +9.4 86 +11 +11 по сезону 1019.9 1001.0
00 14.09 штиль 0
{1}
20 км слабый дождь 10/0
[As op]
+11.7 +9.5 86 +11 +11 тепло 1020.1 1001.2
03 14.09 штиль 0
{2}
20 км в посл. час дождь 10/10 1500 м
[Sc]
+11.8 +10.3 91 +11 +11 тепло 1020.2 1001.3
06 14.09 СЗ 1-2
{3}
20 км {дождь} 9/8 2000 м
[Sc Ac As]
+12.3 +10.5 89 +12 +12 тепло 1020.5 1001.7 +11.2 0.3
09 14.09 С 1-3
{4}
20 км 8/0
[Ac trans Ci fib]
+15.2 +8.9 66 +16 +21 тепло 1020.7 1002.1
12 14.09 СЗ 3-5
{5}
20 км 4/4 1000 м
[Cu med, cong]
+18.3 +8.6 53 +19 +22 тепло 1020.2 1001.7
15 14.09 СЗ 1-4
{5}
20 км 4/3 1500 м
[Cu med, cong Cs]
+18.4 +7.6 49 +20 +21 тепло 1020.0 1001.5
18 14.09 штиль 0
{4}
20 км ясно +12.8 +6.8 67 +12 +12 по сезону 1020.9 1002.0 +19.2
21 14.09 штиль 0-1
{2}
20 км ясно +10.0 +7.3 83 +9 +9 по сезону 1020.9 1001.9
00 15.09 штиль 0
{2}
20 км ясно +8.0 +6.1 88 +7 +7 по сезону 1020.7 1001.5
03 15.09 штиль 0
{2}
20 км 9/9 1500 м
[Sc]
+6.9 +5.6 91 +6 +6 по сезону 1020.2 1001.0
06 15.09 ЮВ 1-2
{3}
20 км 9/9 1500 м
[Sc]
+9.9 +7.8 87 +9 +10 по сезону 1019.7 1000.7 +6.6
09 15.09 ЮВ 1-3
{4}
20 км 9/3 1500 м
[Sc Cs]
+13.7 +9.4 75 +14 +19 тепло 1018.7 1000.0
12 15.09 штиль 0-2
{5}
20 км 9/0
[Ac As]
+17.0 +8.4 57 +17 +20 тепло 1017.3 998.8
15 15.09 З 2-4
{6}
20 км слабый дождь 10/0
[As op]
+16.7 +9.2 61 +17 +17 тепло 1016.8 998.3
18 15.09 ЮЗ 1-2
{4}
20 км в посл. час дождь 10/10 1410 м
[Sc]
+14.3 +11.7 84 +15 +15 тепло 1017.7 999.0 +18.5 0.0
21 15.09 ЮЗ 2-3
{4}
20 км слабый дождь 10/0
[As op]
+12.5 +10.6 88 +12 +12 тепло 1017.7 998.9
00 16.09 З 3-5
{5}
20 км {дождь} 4/3 2000 м
[Sc Ac trans Ci fib]
+11.8 +10.3 91 +10 +10 по сезону 1017.9 999.1
03 16.09 З 3-7
{7}
20 км 9/6 2000 м
[Sc Ac As]
+11.8 +10.0 89 +10 +10 по сезону 1018.4 999.5
06 16.09 СЗ 3-6
{7}
20 км 5/5 300 м
[St]
+12.0 +9.8 86 +10 +11 по сезону 1020.2 1001.4 +11.2 0.1
09 16.09 СЗ 4-6
{9}
20 км 8/6 1000 м
[Cu med, cong Ac trans]
+15.4 +7.6 60 +15 +16 тепло 1021.4 1002.7
12 16.09 З 5-9
{10}
20 км 4/4 1500 м
[Cu med, cong]
+18.0 +3.8 39 +18 +20 тепло 1021.3 1002.8
15 16.09 З 4-7
{12}
20 км 3/0
[Ac trans]
+17.5 +3.6 40 +17 +18 тепло 1021.7 1003.1
18 16.09 З 2-4
{8}
20 км 6/4 1500 м
[Sc Ac trans]
+12.8 +4.8 58 +12 +12 по сезону 1022.9 1004.0 +18.3
21 16.09 З 1-3
{4}
20 км 4/0
[Ac trans]
+10.7 +6.7 76 +10 +10 по сезону 1023.4 1004.4
00 17.09 Ю 1-2
{3}
20 км 6/6 1500 м
[Sc]
+9.0 +7.3 89 +8 +8 по сезону 1023.4 1004.3
03 17.09 Ю 2-3
{3}
20 км 5/3 1500 м
[Sc Ac trans]
+8.3 +6.8 90 +6 +6 по сезону 1022.6 1003.5
06 17.09 Ю 3-4
{5}
20 км 5/0
[Ac trans]
+9.8 +7.3 84 +8 +8 по сезону 1022.3 1003.3 +8.3
09 17.09 ЮЗ 4-7
{8}
20 км 8/0
[Ac trans Cs]
+16.5 +8.0 57 +16 +19 тепло 1021.3 1002.7
12 17.09 ЮЗ 6-10
{11}
20 км 6/5 1410 м
[Cu hum Ac trans Cs]
+19.4 +8.0 48 +20 +21 тепло 1019.7 1001.4
15 17.09 ЮЗ 4-7
{14}
20 км 8/3 1500 м
[Cu hum Ac trans Cs]
+19.7 +8.6 49 +21 +21 комфорт 1018.8 1000.4
18 17.09 ЮЗ 3-4
{9}
20 км 8/0
[Cc]
+16.5 +9.2 62 +16 +16 тепло 1018.9 1000.3 +20.8
21 17.09 З 2-4
{5}
20 км 8/4 1500 м
[Sc Cc]
+15.6 +9.7 68 +16 +16 тепло 1018.8 1000.2
00 18.09 ЮЗ 1-2
{5}
20 км 6/0
[Cc]
+13.2 +9.7 79 +13 +13 тепло 1019.5 1000.7
03 18.09 ЮЗ 1-3
{3}
20 км 9/0
[Cc]
+11.8 +9.4 85 +12 +12 тепло 1020.1 1001.2
06 18.09 штиль 0
{3}
20 км 9/0
[Cc]
+12.0 +10.0 88 +11 +13 тепло 1021.0 1002.1 +10.9
09 18.09 ЮЗ 3-4
{4}
20 км 8/0
[Ac trans Cs]
+18.4 +11.7 65 +19 +22 тепло 1020.8 1002.4
12 18.09 ЮЗ 3-6
{7}
20 км 3/0
[Ac trans Ci fib]
+23.6 +9.9 42 +25 +29 комфорт 1019.3 1001.2
15 18.09 ЮЗ 2-4
{7}
20 км 4/0
[Ci fib]
+23.3 +9.0 40 +25 +26 комфорт 1018.2 1000.1
18 18.09 штиль 0-1
{6}
20 км ясно +16.7 +9.7 63 +17 +17 тепло 1019.1 1000.5 +24.5
21 18.09 штиль 0-2
{3}
20 км ясно +13.3 +9.2 76 +13 +13 тепло 1019.2 1000.4
00 19.09 ЮВ 3-3
{3}
20 км ясно +12.0 +9.8 86 +10 +10 тепло 1018.7 999.9
03 19.09 ЮВ 2-3
{3}
8000 м дымка ясно +11.7 +10.4 92 +10 +10 тепло 1018.2 999.3
06 19.09 Ю 2-3
{4}
11 км 4/0
[Ac trans Ci fib]
+14.0 +12.3 89 +13 +14 тепло 1017.9 999.2 +11.5
09 19.09 Ю 4-7
{7}
20 км 3/0
[Ci fib]
+22.9 +13.6 56 +26 +30 жарко 1016.8 998.7
12 19.09 ЮЗ 4-7
{9}
20 км 4/0
[Ci fib]
+26.6 +13.4 44 +29 +32 жарко 1016.1 998.2
15 19.09 ЮЗ 3-6
{10}
20 км 3/0
[Cc]
+26.1 +12.9 44 +28 +28 жарко 1016.1 998.2
18 19.09 ЮЗ 2-3
{6}
20 км ясно +21.1 +13.4 61 +23 +23 комфорт 1017.0 998.7 +27.1

 

Местоположение метеостанции Vilnius (Литва): широта 54.63 долгота 25.28 высота над уровнем моря 156 м.

В архиве по умолчанию представлена погода в Vilnius за последнюю неделю. Архивные данные за месяц целиком и за предыдущие месяцы, начиная с января 2011 года, Вы можете получить, выбрав интересующий диапазон дат из раскрывающегося списка и нажав кнопку "Ввод!".


*Определитесь, кто Вы:
робот инопланетянин человек

Внимание! Время в таблицах - всемирное. Для получения местного времени необходимо прибавить поправку, которая в Vilnius равна 2 ч.

Смотрите также архив погоды в соседних городах и на ближайших метеорологических станциях:

Погода в Ошмянах (Гродненская область, Беларусь) (47 км)
Погода в Varena (Литва) (63 км)
Погода в Ukmerge (Литва) (78 км)
Погода в Лынтупах (Витебская область, Беларусь) (81 км)
Погода в ?ven?ionys (Литва) (81 км)
Погода в Лиде (Гродненская область, Беларусь) (81 км)
Погода в Alytus (Литва) (82 км)
Погода в Kauno (Литва) (97 км)
Погода в Нарочи (Минская область, Беларусь) (97 км)
Погода в Воложине (Минская область, Беларусь) (100 км)

Пояснения к столбцам:

Ветер - указаны скорость ветра в м/с - средняя за 10 мин, порывы в срок и между сроками (в фигурных скобках) и направление, откуда дует ветер: С - северный, СВ - северо-восточный, В - восточный, ЮВ - юго-восточный, Ю - южный, ЮЗ - юго-западный, З - западный, СЗ - северо-западный.
Видимость - горизонтальная дальность видимости в метрах или километрах. При видимости от 1 до 10 км при отсутствии осадков обычно наблюдается дымка, при ухудшении видимости до 1 км и менее - туман. В сухую погоду видимость может ухудшаться дымом, пылью или мглою.
Явления - указаны атмосферные явления, наблюдавшиеся в срок или в последний час перед сроком; фигурными скобками обозначены явления, наблюдавшиеся между сроками (за 1-3 часа до срока); квадратными скобками обозначены град или гололедные отложения с указанием их диаметра в мм.
Облачность - указаны через наклонную черту общая и нижняя облачность в баллах и высота нижней границы облаков в метрах; квадратными скобками обозначены формы облаков: Ci - перистые, Cs - перисто-слоистые, Cc - перисто-кучевые, Ac - высококучевые, As - высокослоистые, Sc - слоисто-кучевые, Ns - слоисто-дождевые, Cu - кучевые, Cb - кучево-дождевые. Подробнее классификацию облаков см. в Атласе облаков (PDF).
T - Температура воздуха - температура, измеренная на высоте 2 м над землей.
Td - Температура точки росы - температура, при понижении до которой содержащийся в воздухе водяной пар достигнет насыщения.
f - Относительная влажность воздуха - влажноcть воздуха, измеренная на высоте 2 м над землей.
Te - Эффективная температура - температура, которую ощущает одетый по сезону человек в тени. Характеристика душности погоды. При расчете учитывается влияние влажности воздуха и скорости ветра на теплоощущения человека.
Tes - Эффективная температура на солнце - температура, которую ощущает человек, с поправкой на солнечный нагрев. Характеристика знойности погоды. Зависит от высоты солнца над горизонтом, облачности и скорости ветра. Ночью, в пасмурную погоду, а также при ветре 12 м/с и более поправка равна нулю.
P - Атмосферное давление - приведенное к уровню моря атмосферное давление.
Po - Атмосферное давление - измеренное на уровне метеостанции атмосферное давление.
Tmin - Минимальная температура - минимум температуры воздуха на высоте 2 м над землей.
Tmax - Максимальная температура - максимум температуры воздуха на высоте 2 м над землей.
R - Количество осадков - Количество выпавших осадков за период времени, мм. При наведении курсора мыши на число - период времени, за который выпало указанное количество осадков.
R24 - Количество осадков - Количество выпавших осадков за 24 часа, мм.
S - Снежный покров - Высота снежного покрова, см. При наведении курсора мыши на число - состояние снежного покрова и степень покрытия местности в баллах.